WX9WTF Weather Reports


time (UTC)temp
C
wind
direction
speed
KPH
gust
KPH
rain 1hr
cm
rain 24hr
cm
rain mn
cm
humidity
%
barometer
mb
20260906175120 37 355 3.2 3.2 0.00 0.00 0.00 45 1015.3
20260906174618 37 210 3.2 4.8 0.00 0.00 0.00 47 1015.4
20260906174113 37 186 0.0 8.0 0.00 0.00 0.00 50 1015.5
20260906173608 37 205 1.6 6.4 0.00 0.00 0.00 46 1015.6
20260906173104 37 262 1.6 3.2 0.00 0.00 0.00 47 1015.7
20260906172558 36 174 0.0 4.8 0.00 0.00 0.00 47 1015.7
20260906172054 36 124 0.0 4.8 0.00 0.00 0.00 49 1015.9
20260906171553 36 75 0.0 6.4 0.00 0.00 0.00 47 1015.9
20260906171049 37 325 0.0 3.2 0.00 0.00 0.00 48 1015.9
20260906170545 37 336 0.0 3.2 0.00 0.00 0.00 49 1016.1
20260906170043 37 52 0.0 3.2 0.00 0.00 0.00 49 1016.2
20260906165540 37 59 3.2 3.2 0.00 0.00 0.00 49 1016.1
20260906165036 36 86 3.2 3.2 0.00 0.00 0.00 53 1016.2
20260906164535 36 13 0.0 4.8 0.00 0.00 0.00 51 1016.3
20260906164031 36 60 0.0 1.6 0.00 0.00 0.00 54 1016.1
20260906163526 35 299 0.0 6.4 0.00 0.00 0.00 51 1016.3
20260906163022 36 150 3.2 9.7 0.00 0.00 0.00 50 1016.2
20260906162519 36 162 1.6 6.4 0.00 0.00 0.00 52 1016.5
20260906162014 36 83 3.2 3.2 0.00 0.00 0.00 53 1016.4
20260906161509 35 136 0.0 4.8 0.00 0.00 0.00 53 1016.3
20260906161007 35 134 1.6 4.8 0.00 0.00 0.00 55 1016.3
20260906160501 35 173 4.8 4.8 0.00 0.00 0.00 56 1016.3
20260906155958 35 89 0.0 8.0 0.00 0.00 0.00 60 1016.3
20260906155457 34 89 0.0 3.2 0.00 0.00 0.00 61 1016.1
20260906154948 34 40 0.0 4.8 0.00 0.00 0.00 59 1016.0
20260906154443 33 171 6.4 6.4 0.00 0.00 0.00 58 1016.1
20260906153941 33 126 4.8 6.4 0.00 0.00 0.00 59 1016.2
20260906153440 34 121 3.2 3.2 0.00 0.00 0.00 59 1016.2
20260906152936 34 121 0.0 3.2 0.00 0.00 0.00 59 1016.2
20260906152436 33 118 3.2 4.8 0.00 0.00 0.00 62 1016.2
20260906151935 33 132 1.6 6.4 0.00 0.00 0.00 62 1016.1
20260906151431 33 134 3.2 6.4 0.00 0.00 0.00 62 1016.3
20260906150926 32 89 3.2 4.8 0.00 0.00 0.00 65 1016.1
20260906150421 32 141 3.2 4.8 0.00 0.00 0.00 65 1016.2
20260906145921 32 156 1.6 6.4 0.00 0.00 0.00 65 1016.3
20260906145420 32 85 6.4 8.0 0.00 0.00 0.00 64 1016.3
20260906144914 32 84 4.8 8.0 0.00 0.00 0.00 65 1016.3
20260906144409 32 79 3.2 4.8 0.00 0.00 0.00 65 1016.3
20260906143904 32 97 4.8 4.8 0.00 0.00 0.00 66 1016.3
20260906143400 32 85 3.2 3.2 0.00 0.00 0.00 66 1016.6
20260906142856 31 70 3.2 4.8 0.00 0.00 0.00 68 1016.1
20260906142350 31 108 1.6 3.2 0.00 0.00 0.00 70 1016.1
20260906141850 31 121 3.2 8.0 0.00 0.00 0.00 68 1016.0
20260906141344 31 75 3.2 3.2 0.00 0.00 0.00 70 1016.1
20260906140844 30 75 0.0 4.8 0.00 0.00 0.00 71 1016.1
20260906140339 30 97 1.6 4.8 0.00 0.00 0.00 70 1016.2
20260906135836 30 49 1.6 3.2 0.00 0.00 0.00 71 1016.1
20260906135331 29 112 1.6 1.6 0.00 0.00 0.00 74 1016.0
20260906134827 28 87 0.0 4.8 0.00 0.00 0.00 74 1016.2
20260906134322 29 84 3.2 3.2 0.00 0.00 0.00 73 1016.2
20260906133817 29 93 0.0 3.2 0.00 0.00 0.00 73 1016.0
20260906133313 29 112 1.6 3.2 0.00 0.00 0.00 73 1015.9
20260906132808 29 74 0.0 1.6 0.00 0.00 0.00 73 1016.0
20260906132306 29 37 0.0 0.0 0.00 0.00 0.00 76 1015.9
20260906131759 28 89 0.0 1.6 0.00 0.00 0.00 77 1016.0
20260906131253 27 62 0.0 1.6 0.00 0.00 0.00 81 1015.7
20260906130748 26 126 0.0 0.0 0.00 0.00 0.00 85 1015.7
20260906130244 25 100 0.0 1.6 0.00 0.00 0.00 87 1015.5
20260906125742 24 129 0.0 1.6 0.00 0.00 0.00 89 1015.5
20260906125240 23 63 0.0 1.6 0.00 0.00 0.00 90 1015.4
20260906124735 23 47 0.0 3.2 0.00 0.00 0.00 91 1015.4
20260906124231 23 68 0.0 1.6 0.00 0.00 0.00 92 1015.4
20260906123730 23 89 0.0 0.0 0.00 0.00 0.00 92 1015.5
20260906123225 22 117 0.0 0.0 0.00 0.00 0.00 92 1015.3
20260906122725 22 89 0.0 1.6 0.00 0.00 0.00 92 1015.3
20260906122215 22 110 1.6 1.6 0.00 0.00 0.00 92 1015.2
20260906121711 22 142 0.0 0.0 0.00 0.00 0.00 92 1015.3
20260906121207 22 50 0.0 0.0 0.00 0.00 0.00 92 1015.1
20260906120702 22 50 0.0 0.0 0.00 0.00 0.00 92 1015.3
20260906120153 22 164 0.0 0.0 0.00 0.00 0.00 92 1015.3
20260906115648 22 66 0.0 0.0 0.00 0.00 0.00 92 1015.2
20260906115144 22 15 0.0 0.0 0.00 0.00 0.00 92 1015.2
20260906114643 22 67 0.0 0.0 0.00 0.00 0.00 92 1015.1
20260906114137 22 37 0.0 0.0 0.00 0.00 0.00 92 1015.2
20260906113632 22 11 0.0 1.6 0.00 0.00 0.00 93 1015.1
20260906113127 22 124 0.0 0.0 0.00 0.00 0.00 93 1015.2
20260906112626 22 44 0.0 0.0 0.00 0.00 0.00 93 1015.2
20260906112123 22 50 0.0 0.0 0.00 0.00 0.00 92 1015.1
20260906111622 22 62 0.0 0.0 0.00 0.00 0.00 92 1015.1
20260906111111 22 107 0.0 0.0 0.00 0.00 0.00 92 1015.1
20260906110606 22 118 0.0 1.6 0.00 0.00 0.00 93 1015.1
20260906110106 22 6 0.0 0.0 0.00 0.00 0.00 93 1015.0
20260906105600 22 53 0.0 0.0 0.00 0.00 0.00 92 1015.1
20260906105056 22 57 0.0 1.6 0.00 0.00 0.00 92 1014.9
20260906104555 22 69 0.0 1.6 0.00 0.00 0.00 91 1015.0
20260906104049 22 44 0.0 0.0 0.00 0.00 0.00 91 1015.1
20260906103548 23 50 0.0 0.0 0.00 0.00 0.00 90 1014.8
20260906103043 23 89 0.0 0.0 0.00 0.00 0.00 91 1014.7
20260906102543 23 240 0.0 1.6 0.00 0.00 0.00 91 1014.8
20260906102038 23 269 0.0 0.0 0.00 0.00 0.00 92 1014.7
20260906101533 23 315 0.0 0.0 0.00 0.00 0.00 92 1014.9
20260906101027 23 309 0.0 1.6 0.00 0.00 0.00 92 1014.7
20260906100523 23 52 0.0 0.0 0.00 0.00 0.00 91 1014.7
20260906100018 23 333 0.0 1.6 0.00 0.00 0.00 90 1014.8
20260906095513 23 25 0.0 1.6 0.00 0.00 0.00 89 1014.4
20260906095008 23 18 0.0 0.0 0.00 0.00 0.00 88 1014.7
20260906094507 23 269 0.0 1.6 0.00 0.00 0.00 88 1014.3
20260906094003 23 322 0.0 1.6 0.00 0.00 0.00 88 1014.6
20260906093453 23 255 0.0 1.6 0.00 0.00 0.00 88 1014.6
20260906092948 23 309 0.0 0.0 0.00 0.00 0.00 88 1014.4
20260906092448 23 333 0.0 1.6 0.00 0.00 0.00 88 1014.6
20260906091943 23 322 0.0 0.0 0.00 0.00 0.00 89 1014.3
20260906091438 23 5 0.0 0.0 0.00 0.00 0.00 89 1014.4
20260906090935 23 310 0.0 0.0 0.00 0.00 0.00 89 1014.3
20260906090430 23 310 0.0 0.0 0.00 0.00 0.00 90 1014.2
20260906085930 23 310 0.0 1.6 0.00 0.00 0.00 91 1014.4
20260906085429 23 17 0.0 0.0 0.00 0.00 0.00 91 1014.2
20260906084928 23 322 0.0 0.0 0.00 0.00 0.00 91 1014.2
20260906084423 23 343 1.6 3.2 0.00 0.00 0.00 92 1014.2
20260906083922 23 310 0.0 1.6 0.00 0.00 0.00 92 1014.1
20260906083418 23 309 0.0 1.6 0.00 0.00 0.00 91 1014.1
20260906082917 23 283 0.0 1.6 0.00 0.00 0.00 91 1014.2
20260906082413 23 89 0.0 0.0 0.00 0.00 0.00 90 1014.1
20260906081909 24 97 3.2 3.2 0.00 0.00 0.00 90 1014.2
20260906081403 23 0 0.0 1.6 0.00 0.00 0.00 88 1014.1
20260906080900 23 297 0.0 0.0 0.00 0.00 0.00 89 1013.9
20260906080356 23 309 0.0 0.0 0.00 0.00 0.00 89 1014.0
20260906075855 23 309 0.0 0.0 0.00 0.00 0.00 90 1013.9
20260906075350 23 315 0.0 0.0 0.00 0.00 0.00 91 1014.1
20260906074846 23 322 0.0 0.0 0.00 0.00 0.00 91 1014.0
20260906074340 23 297 0.0 0.0 0.00 0.00 0.00 90 1014.1
20260906073839 24 297 0.0 0.0 0.00 0.00 0.00 90 1014.2
20260906073334 24 345 0.0 0.0 0.00 0.00 0.00 90 1014.0
20260906072831 24 322 0.0 0.0 0.00 0.00 0.00 89 1014.1
20260906072326 24 297 0.0 0.0 0.00 0.00 0.00 90 1013.9
20260906071822 24 290 0.0 0.0 0.00 0.00 0.00 90 1013.9
20260906071321 24 309 0.0 0.0 0.00 0.00 0.00 90 1014.1
20260906070818 24 309 0.0 0.0 0.00 0.00 0.00 90 1014.1
20260906070314 24 343 0.0 0.0 0.00 0.00 0.00 89 1014.0
20260906065814 24 343 0.0 0.0 0.00 0.00 0.00 88 1014.1
20260906065309 24 343 0.0 0.0 0.00 0.00 0.00 88 1014.1
20260906064804 24 343 0.0 0.0 0.00 0.00 0.00 88 1014.1
20260906064300 24 343 0.0 0.0 0.00 0.00 0.00 88 1014.2
20260906063755 24 242 0.0 0.0 0.00 0.00 0.00 88 1014.3
20260906063251 24 269 0.0 0.0 0.00 0.00 0.00 88 1014.3
20260906062745 24 269 0.0 0.0 0.00 0.00 0.00 89 1014.4
20260906062244 24 269 0.0 0.0 0.00 0.00 0.00 89 1014.3
20260906061740 24 297 0.0 0.0 0.00 0.00 0.00 89 1014.3
20260906061237 24 297 0.0 0.0 0.00 0.00 0.00 90 1014.3
20260906060731 24 32 0.0 0.0 0.00 0.00 0.00 90 1014.4
20260906060229 24 242 0.0 0.0 0.00 0.00 0.00 91 1014.4
20260906055725 25 309 0.0 0.0 0.00 0.00 0.00 91 1014.6
20260906055220 25 299 0.0 1.6 0.00 0.00 0.00 91 1014.7
20260906054716 25 284 0.0 1.6 0.00 0.00 0.00 90 1014.4
20260906054216 25 309 0.0 0.0 0.00 0.00 0.00 90 1014.4
20260906053713 25 309 0.0 0.0 0.00 0.00 0.00 89 1014.6
20260906053208 25 309 0.0 0.0 0.00 0.00 0.00 89 1014.7
20260906052702 25 25 0.0 0.0 0.00 0.00 0.00 88 1014.6
20260906052159 25 343 0.0 0.0 0.00 0.00 0.00 88 1014.8
20260906051655 25 242 0.0 0.0 0.00 0.00 0.00 88 1014.8
20260906051155 25 297 0.0 0.0 0.00 0.00 0.00 88 1014.6
20260906050650 25 315 0.0 0.0 0.00 0.00 0.00 87 1014.7
20260906050145 25 242 0.0 0.0 0.00 0.00 0.00 87 1014.6
20260906045644 25 307 0.0 0.0 0.00 0.00 0.00 89 1014.4
20260906045139 25 287 0.0 1.6 0.00 0.00 0.00 88 1014.6
20260906044635 25 314 0.0 0.0 0.00 0.00 0.00 87 1014.7
20260906044130 25 322 0.0 1.6 0.00 0.00 0.00 87 1014.6
20260906043626 25 319 0.0 0.0 0.00 0.00 0.00 87 1014.8
20260906043121 25 333 0.0 0.0 0.00 0.00 0.00 87 1014.4
20260906042621 25 242 0.0 0.0 0.00 0.00 0.00 86 1014.4
20260906042115 25 269 0.0 0.0 0.00 0.00 0.00 86 1014.4
20260906041612 25 255 0.0 0.0 0.00 0.00 0.00 86 1014.4
20260906041106 25 333 0.0 0.0 0.00 0.00 0.00 85 1014.4
20260906040601 25 297 0.0 0.0 0.00 0.00 0.00 84 1014.2
20260906040057 26 256 0.0 0.0 0.00 0.00 0.00 83 1014.2
20260906035552 26 256 0.0 1.6 0.00 0.00 0.00 84 1014.3
20260906035042 26 242 0.0 0.0 0.00 0.00 0.00 83 1014.4
20260906034542 26 255 0.0 0.0 0.00 0.00 0.00 83 1014.1
20260906034037 26 322 0.0 0.0 0.00 0.00 0.00 82 1014.2
20260906033532 26 322 0.0 0.0 0.00 0.00 0.00 82 1014.1
20260906033027 26 322 0.0 0.0 0.00 0.00 0.00 82 1014.1
20260906032524 26 322 0.0 0.0 0.00 0.00 0.00 81 1014.3
20260906032019 26 322 0.0 0.0 0.00 0.00 0.00 80 1014.1
20260906031515 26 322 0.0 0.0 0.00 0.00 0.00 80 1014.0
20260906031009 26 322 0.0 0.0 0.00 0.00 0.00 80 1014.0
20260906030503 26 309 0.0 0.0 0.00 0.00 0.00 80 1013.7
20260906030003 26 309 0.0 0.0 0.00 0.00 0.00 80 1013.7
20260906025502 26 309 0.0 0.0 0.00 0.00 0.00 79 1013.7
20260906025001 26 309 0.0 0.0 0.00 0.00 0.00 79 1013.8
20260906024456 26 309 0.0 0.0 0.00 0.00 0.00 79 1013.6
20260906023955 26 309 0.0 0.0 0.00 0.00 0.00 79 1013.6
20260906023453 26 309 0.0 0.0 0.00 0.00 0.00 78 1013.3
20260906022953 27 309 0.0 0.0 0.00 0.00 0.00 78 1013.5
20260906022449 27 309 0.0 0.0 0.00 0.00 0.00 78 1013.4
20260906021949 27 336 0.0 0.0 0.00 0.00 0.00 78 1013.3
20260906021443 27 235 0.0 0.0 0.00 0.00 0.00 77 1013.3
20260906020938 27 333 0.0 0.0 0.00 0.00 0.00 77 1013.3
20260906020433 27 333 0.0 0.0 0.00 0.00 0.00 77 1013.3
20260906015927 27 333 0.0 0.0 0.00 0.00 0.00 76 1013.1
20260906015426 27 333 0.0 0.0 0.00 0.00 0.00 77 1013.2
20260906014926 27 333 0.0 0.0 0.00 0.00 0.00 76 1013.0
20260906014426 27 333 0.0 0.0 0.00 0.00 0.00 76 1013.1
20260906013922 27 309 0.0 0.0 0.00 0.00 0.00 75 1012.9
20260906013417 28 309 0.0 0.0 0.00 0.00 0.00 74 1012.8
20260906012913 28 309 0.0 0.0 0.00 0.00 0.00 74 1012.9
20260906012408 28 309 0.0 0.0 0.00 0.00 0.00 73 1012.8
20260906011907 28 309 0.0 0.0 0.00 0.00 0.00 71 1012.5
20260906011402 29 333 0.0 1.6 0.00 0.00 0.00 71 1012.5
20260906010858 29 269 0.0 1.6 0.00 0.00 0.00 70 1012.6
20260906010354 29 283 0.0 0.0 0.00 0.00 0.00 70 1012.6
20260906005849 30 283 0.0 0.0 0.00 0.00 0.00 69 1012.5
20260906005348 30 309 0.0 0.0 0.00 0.00 0.00 68 1012.5
20260906004847 30 255 0.0 0.0 0.00 0.00 0.00 67 1012.5
20260906004347 30 297 0.0 0.0 0.00 0.00 0.00 65 1012.5
20260906003842 30 297 0.0 0.0 0.00 0.00 0.00 64 1012.6
20260906003338 31 309 0.0 0.0 0.00 0.00 0.00 62 1012.5
20260906002833 31 255 0.0 0.0 0.00 0.00 0.00 61 1012.7
20260906002332 32 284 0.0 0.0 0.00 0.00 0.00 60 1012.4
20260906001829 32 37 0.0 0.0 0.00 0.00 0.00 57 1012.6
20260906001324 33 117 0.0 0.0 0.00 0.00 0.00 53 1012.6
20260906000819 33 117 0.0 0.0 0.00 0.00 0.00 53 1012.3
20260906000314 34 117 0.0 0.0 0.00 0.00 0.00 52 1012.5
20260905235814 35 117 0.0 0.0 0.00 0.00 0.00 49 1012.3
20260905235314 35 230 0.0 0.0 0.00 0.00 0.00 49 1012.3
20260905234809 36 230 0.0 1.6 0.00 0.00 0.00 45 1012.5
20260905234304 36 231 0.0 1.6 0.00 0.00 0.00 43 1012.4
20260905233800 37 104 0.0 0.0 0.00 0.00 0.00 43 1012.3
20260905233259 38 224 0.0 1.6 0.00 0.00 0.00 40 1012.3
20260905232759 39 224 0.0 0.0 0.00 0.00 0.00 39 1012.3
20260905232255 41 269 0.0 1.6 0.00 0.00 0.00 36 1012.4
20260905231750 41 284 0.0 1.6 0.00 0.00 0.00 36 1012.3
20260905231246 40 283 0.0 1.6 0.00 0.00 0.00 35 1012.3
20260905230742 40 224 0.0 0.0 0.00 0.00 0.00 34 1012.4
20260905230239 40 269 0.0 1.6 0.00 0.00 0.00 34 1012.4
20260905225739 40 269 0.0 0.0 0.00 0.00 0.00 35 1012.3
20260905225235 40 283 0.0 1.6 0.00 0.00 0.00 34 1012.3
20260905224733 40 275 1.6 3.2 0.00 0.00 0.00 35 1012.4
20260905224229 38 247 1.6 1.6 0.00 0.00 0.00 37 1012.5
20260905223726 38 135 0.0 0.0 0.00 0.00 0.00 39 1012.2
20260905223222 38 224 0.0 0.0 0.00 0.00 0.00 38 1012.4
20260905222718 38 44 0.0 1.6 0.00 0.00 0.00 39 1012.5
20260905222216 37 235 0.0 3.2 0.00 0.00 0.00 40 1012.4
20260905221713 37 217 0.0 0.0 0.00 0.00 0.00 42 1012.6
20260905221209 36 161 0.0 4.8 0.00 0.00 0.00 42 1012.5
20260905220705 38 89 0.0 3.2 0.00 0.00 0.00 42 1012.7
20260905220201 38 10 3.2 6.4 0.00 0.00 0.00 38 1012.7
20260905215700 39 295 4.8 6.4 0.00 0.00 0.00 37 1012.7
20260905215156 39 8 0.0 4.8 0.00 0.00 0.00 37 1012.8
20260905214652 38 180 0.0 4.8 0.00 0.00 0.00 39 1012.8
20260905214147 38 88 0.0 1.6 0.00 0.00 0.00 41 1012.6
20260905213642 38 17 3.2 3.2 0.00 0.00 0.00 40 1012.8
20260905213137 38 229 0.0 3.2 0.00 0.00 0.00 38 1012.8
20260905212632 38 75 0.0 3.2 0.00 0.00 0.00 42 1012.8
20260905212132 38 54 3.2 3.2 0.00 0.00 0.00 42 1013.1
20260905211626 38 161 0.0 3.2 0.00 0.00 0.00 41 1013.1
20260905211122 38 163 0.0 3.2 0.00 0.00 0.00 39 1013.0
20260905210619 39 232 4.8 6.4 0.00 0.00 0.00 36 1013.0
20260905210113 37 330 1.6 8.0 0.00 0.00 0.00 40 1013.2
20260905205612 37 280 8.0 11.3 0.00 0.00 0.00 38 1013.3
20260905205112 39 315 0.0 6.4 0.00 0.00 0.00 39 1013.3
20260905204606 38 338 3.2 4.8 0.00 0.00 0.00 41 1013.4
20260905204102 38 338 0.0 3.2 0.00 0.00 0.00 40 1013.4
20260905203602 38 4 0.0 3.2 0.00 0.00 0.00 44 1013.3
20260905203057 37 300 3.2 4.8 0.00 0.00 0.00 43 1013.7
20260905202553 37 177 0.0 6.4 0.00 0.00 0.00 42 1013.7
20260905202048 36 227 0.0 0.0 0.00 0.00 0.00 47 1013.7
20260905201543 37 216 0.0 3.2 0.00 0.00 0.00 43 1013.7
20260905201043 37 242 1.6 1.6 0.00 0.00 0.00 41 1013.8
20260905200538 38 322 0.0 0.0 0.00 0.00 0.00 41 1013.9
20260905200038 37 186 0.0 1.6 0.00 0.00 0.00 45 1013.9
20260905195532 37 232 0.0 3.2 0.00 0.00 0.00 44 1014.0
20260905195027 38 175 0.0 1.6 0.00 0.00 0.00 44 1014.3
20260905194521 37 130 0.0 4.8 0.00 0.00 0.00 44 1014.1
20260905194021 38 180 1.6 3.2 0.00 0.00 0.00 41 1014.2
20260905193516 38 206 3.2 4.8 0.00 0.00 0.00 43 1014.3
20260905193011 37 169 0.0 4.8 0.00 0.00 0.00 42 1014.2
20260905192507 37 296 1.6 3.2 0.00 0.00 0.00 41 1014.2
20260905192003 36 142 0.0 3.2 0.00 0.00 0.00 43 1014.3
20260905191501 35 244 3.2 3.2 0.00 0.00 0.00 46 1014.3
20260905191000 35 297 0.0 1.6 0.00 0.00 0.00 48 1014.3
20260905190458 35 246 1.6 3.2 0.00 0.00 0.00 48 1014.3
20260905185957 35 246 0.0 0.0 0.00 0.00 0.00 50 1014.6
20260905185452 35 218 3.2 8.0 0.00 0.00 0.00 50 1014.7
20260905184951 35 253 6.4 9.7 0.00 0.00 0.00 48 1014.6
20260905184446 36 326 3.2 9.7 0.00 0.00 0.00 43 1014.7
20260905183944 37 250 4.8 6.4 0.00 0.00 0.00 43 1014.8
20260905183439 37 259 1.6 8.0 0.00 0.00 0.00 46 1014.7
20260905182934 37 313 6.4 9.7 0.00 0.00 0.00 45 1015.0
20260905182433 37 340 1.6 4.8 0.00 0.00 0.00 47 1014.9
20260905181929 36 96 0.0 1.6 0.00 0.00 0.00 50 1015.0
20260905181429 35 322 0.0 6.4 0.00 0.00 0.00 46 1015.2
20260905180928 35 263 3.2 4.8 0.00 0.00 0.00 48 1015.3
20260905180423 35 280 0.0 3.2 0.00 0.00 0.00 48 1015.3
20260905175918 36 259 4.8 6.4 0.00 0.00 0.00 46 1015.2
20260905175417 36 277 3.2 8.0 0.00 0.00 0.00 45 1015.4